スコッティ彗星

202P/Scotti (2009)

English version
Home page
Total 6,336 html files since Dec. 4, 1995
Updated on October 26, 2008

---------------------------------------------------------------------

・ プロフィール

符号 202P/2008 R2
検出日 2008年9月5日
検出光度 20.5等
検出者 J. V. Scotti (Lunar and Planetary Laboratory)

・ 軌道要素

Epoch 2009 Feb. 18.0 TT = JDT 2454880.5
T 2009 Feb. 7.01580 TT                                  MPC
q   2.5269628            (2000.0)            P               Q
n   0.13430769     Peri.  255.56010     -0.00227234     -0.99995137
a   3.7763202      Node   194.58025     +0.93153982     +0.00137314
e   0.3308399      Incl.    2.18485     +0.36363222     -0.00976635
P   7.34

・ 光度変化

        m1 = 14.0 + 5 logΔ + 10.0 log r

---------------------------------------------------------------------

軌道要素はM.P.E.C. 2008-R30に掲載されたものです。
光度グラフはComet for Windowsで作成したものです。

---------------------------------------------------------------------

Copyright(C) 1995-2008 Seiichi Yoshida (comet@aerith.net). All rights reserved.